When you browse on this site, cookies collect data to enhance your experience and personalize the content and advertising you see.
Visit our Privacy Policy to learn more. By continuing to use the site, you agree to this use of cookies and data.
  • In Austria
  • List of Countries
  • For 7 days
  • Water Temperature
  • Satellite Maps
  • Weather Map
  • News
  • Weather Widgets
  • user-avatar
    Login

    Hourly Weather Rotorua

    Today, 21 July, Sunday

    Time Temperature Precipitation Wind Pressure Humidity
    00:00 +7°C° 0 mm 1 mps 716 mmHg 96%
    01:00 +7°C° 0 mm 1 mps 716 mmHg 97%
    02:00 +5°C° 0 mm 0 mps 716 mmHg 98%
    03:00 +5°C° 0 mm 0 mps 716 mmHg 98%
    04:00 +5°C° 0 mm 0 mps 716 mmHg 98%
    05:00 +4°C° 0 mm 0 mps 717 mmHg 98%
    06:00 +5°C° 0 mm 0 mps 717 mmHg 99%
    07:00 +5°C° 0 mm 0 mps 717 mmHg 96%
    08:00 +6°C° 0 mm 0 mps 718 mmHg 94%
    09:00 +7°C° 0 mm 0 mps 718 mmHg 92%
    10:00 +8°C° 0 mm 0 mps 718 mmHg 82%
    11:00 +9°C° 0 mm 0 mps 718 mmHg 72%
    12:00 +12°C° 0 mm 1 mps 719 mmHg 62%
    13:00 +12°C° 0 mm 1 mps 719 mmHg 60%
    14:00 +12°C° 0 mm 1 mps 719 mmHg 59%
    15:00 +12°C° 0 mm 1 mps 719 mmHg 57%
    16:00 +10°C° 0 mm 1 mps 719 mmHg 67%
    17:00 +8°C° 0 mm 0 mps 719 mmHg 77%
    18:00 +5°C° 0 mm 0 mps 719 mmHg 89%
    19:00 +5°C° 0 mm 0 mps 720 mmHg 90%
    20:00 +5°C° 0 mm 0 mps 720 mmHg 91%
    21:00 +4°C° 0 mm 0 mps 720 mmHg 92%
    22:00 +4°C° 0 mm 0 mps 721 mmHg 92%
    23:00 +4°C° 0 mm 0 mps 721 mmHg 92%

    Tomorrow, 22 July, Monday

    Time Temperature Precipitation Wind Pressure Humidity
    00:00 +5°C° 0 mm 1 mps 721 mmHg 92%
    01:00 +5°C° 0 mm 1 mps 721 mmHg 92%
    02:00 +4°C° 0 mm 1 mps 721 mmHg 92%
    03:00 +4°C° 0 mm 1 mps 721 mmHg 93%
    04:00 +4°C° 0 mm 1 mps 722 mmHg 93%
    05:00 +4°C° 0 mm 1 mps 722 mmHg 93%
    06:00 +4°C° 0 mm 1 mps 722 mmHg 93%
    07:00 +5°C° 0 mm 1 mps 722 mmHg 87%
    08:00 +6°C° 0 mm 1 mps 723 mmHg 82%
    09:00 +7°C° 0 mm 1 mps 724 mmHg 77%
    10:00 +10°C° 0 mm 1 mps 724 mmHg 65%
    11:00 +11°C° 0 mm 0 mps 724 mmHg 52%
    12:00 +13°C° 0 mm 0 mps 724 mmHg 40%
    13:00 +13°C° 0 mm 0 mps 723 mmHg 39%
    14:00 +14°C° 0 mm 0 mps 723 mmHg 39%
    15:00 +14°C° 0 mm 0 mps 723 mmHg 38%
    16:00 +11°C° 0 mm 0 mps 723 mmHg 48%
    17:00 +9°C° 0 mm 0 mps 723 mmHg 58%
    18:00 +7°C° 0 mm 0 mps 723 mmHg 67%
    19:00 +6°C° 0 mm 0 mps 723 mmHg 70%
    20:00 +6°C° 0 mm 1 mps 723 mmHg 73%
    21:00 +6°C° 0 mm 1 mps 724 mmHg 76%
    22:00 +6°C° 0 mm 1 mps 724 mmHg 79%
    23:00 +5°C° 0 mm 1 mps 724 mmHg 82%

    Day after tomorrow, 23 July, Tuesday

    Time Temperature Precipitation Wind Pressure Humidity
    00:00 +5°C° 0 mm 1 mps 724 mmHg 85%
    01:00 +5°C° 0 mm 1 mps 724 mmHg 87%
    02:00 +5°C° 0 mm 1 mps 724 mmHg 90%
    03:00 +5°C° 0 mm 1 mps 724 mmHg 92%
    04:00 +5°C° 0 mm 1 mps 724 mmHg 93%
    05:00 +5°C° 0 mm 1 mps 724 mmHg 93%
    06:00 +4°C° 0 mm 1 mps 724 mmHg 94%
    07:00 +5°C° 0 mm 1 mps 724 mmHg 90%
    08:00 +7°C° 0 mm 1 mps 724 mmHg 85%
    09:00 +8°C° 0 mm 1 mps 725 mmHg 81%
    10:00 +9°C° 0 mm 0 mps 725 mmHg 71%
    11:00 +12°C° 0 mm 0 mps 725 mmHg 62%
    12:00 +15°C° 0 mm 0 mps 725 mmHg 53%
    13:00 +14°C° 0 mm 0 mps 725 mmHg 54%
    14:00 +14°C° 0 mm 0 mps 725 mmHg 56%
    15:00 +15°C° 0 mm 1 mps 724 mmHg 58%
    16:00 +12°C° 0.2 mm 0 mps 724 mmHg 70%
    17:00 +10°C° 0.2 mm 0 mps 724 mmHg 82%
    18:00 +7°C° 0.2 mm 0 mps 724 mmHg 94%
    19:00 +7°C° 0 mm 0 mps 724 mmHg 94%
    20:00 +7°C° 0 mm 0 mps 724 mmHg 94%
    21:00 +7°C° 0 mm 0 mps 725 mmHg 95%
    22:00 +6°C° 0 mm 0 mps 725 mmHg 96%
    23:00 +6°C° 0 mm 0 mps 725 mmHg 97%

    24 July, Wednesday

    Time Temperature Precipitation Wind Pressure Humidity
    00:00 +6°C° 0 mm 0 mps 725 mmHg 97%
    01:00 +5°C° 0 mm 0 mps 724 mmHg 98%
    02:00 +5°C° 0 mm 0 mps 724 mmHg 98%
    03:00 +6°C° 0 mm 1 mps 724 mmHg 98%
    04:00 +6°C° 0 mm 1 mps 724 mmHg 98%
    05:00 +6°C° 0 mm 1 mps 724 mmHg 98%
    06:00 +6°C° 0 mm 1 mps 724 mmHg 98%
    07:00 +6°C° 0 mm 1 mps 724 mmHg 96%
    08:00 +7°C° 0 mm 1 mps 725 mmHg 94%
    09:00 +8°C° 0 mm 1 mps 725 mmHg 92%
    10:00 +10°C° 0 mm 1 mps 725 mmHg 82%
    11:00 +12°C° 0 mm 1 mps 725 mmHg 73%
    12:00 +14°C° 0 mm 1 mps 725 mmHg 64%
    13:00 +13°C° 0.2 mm 1 mps 725 mmHg 68%
    14:00 +13°C° 0.2 mm 1 mps 725 mmHg 71%
    15:00 +13°C° 0.2 mm 1 mps 724 mmHg 75%
    16:00 +11°C° 0.1 mm 1 mps 724 mmHg 83%
    17:00 +9°C° 0.1 mm 0 mps 725 mmHg 90%
    18:00 +7°C° 0.1 mm 0 mps 725 mmHg 98%
    19:00 +6°C° 0 mm 0 mps 725 mmHg 98%
    20:00 +6°C° 0 mm 0 mps 725 mmHg 98%
    21:00 +6°C° 0 mm 0 mps 725 mmHg 98%
    22:00 +6°C° 0 mm 0 mps 726 mmHg 97%
    23:00 +6°C° 0 mm 0 mps 726 mmHg 97%

    25 July, Thursday

    Time Temperature Precipitation Wind Pressure Humidity
    00:00 +6°C° 0 mm 0 mps 726 mmHg 96%
    01:00 +6°C° 0 mm 0 mps 726 mmHg 96%
    02:00 +7°C° 0 mm 0 mps 726 mmHg 95%
    03:00 +7°C° 0 mm 0 mps 726 mmHg 95%
    04:00 +6°C° 0 mm 0 mps 726 mmHg 96%
    05:00 +6°C° 0 mm 0 mps 726 mmHg 97%
    06:00 +5°C° 0 mm 0 mps 726 mmHg 98%
    07:00 +6°C° 0 mm 0 mps 726 mmHg 96%
    08:00 +6°C° 0 mm 0 mps 727 mmHg 94%
    09:00 +8°C° 0 mm 1 mps 727 mmHg 92%
    10:00 +10°C° 0 mm 1 mps 727 mmHg 82%
    11:00 +12°C° 0 mm 1 mps 727 mmHg 72%
    12:00 +13°C° 0 mm 2 mps 727 mmHg 63%
    13:00 +13°C° 0 mm 2 mps 727 mmHg 61%
    14:00 +13°C° 0 mm 2 mps 727 mmHg 60%
    15:00 +13°C° 0 mm 2 mps 726 mmHg 58%
    16:00 +12°C° 0 mm 2 mps 726 mmHg 66%
    17:00 +10°C° 0 mm 1 mps 726 mmHg 75%
    18:00 +8°C° 0 mm 1 mps 727 mmHg 83%
    19:00 +8°C° 0 mm 1 mps 727 mmHg 87%
    20:00 +8°C° 0 mm 1 mps 727 mmHg 91%
    21:00 +7°C° 0 mm 1 mps 728 mmHg 95%
    22:00 +7°C° 0 mm 1 mps 728 mmHg 96%
    23:00 +6°C° 0 mm 1 mps 728 mmHg 97%

    26 July, Friday

    Time Temperature Precipitation Wind Pressure Humidity
    00:00 +6°C° 0 mm 1 mps 728 mmHg 97%
    01:00 +6°C° 0 mm 1 mps 728 mmHg 97%
    02:00 +6°C° 0 mm 1 mps 728 mmHg 96%
    03:00 +5°C° 0 mm 1 mps 728 mmHg 96%
    04:00 +5°C° 0 mm 1 mps 728 mmHg 95%
    05:00 +5°C° 0 mm 1 mps 728 mmHg 95%
    06:00 +5°C° 0 mm 1 mps 728 mmHg 94%
    07:00 +6°C° 0 mm 1 mps 729 mmHg 91%
    08:00 +7°C° 0 mm 1 mps 729 mmHg 88%
    09:00 +8°C° 0 mm 1 mps 730 mmHg 84%
    10:00 +10°C° 0 mm 1 mps 730 mmHg 75%
    11:00 +10°C° 0 mm 2 mps 730 mmHg 66%
    12:00 +13°C° 0 mm 2 mps 730 mmHg 57%
    13:00 +13°C° 0 mm 2 mps 730 mmHg 57%
    14:00 +13°C° 0 mm 2 mps 729 mmHg 58%
    15:00 +13°C° 0 mm 2 mps 729 mmHg 58%
    16:00 +12°C° 0 mm 2 mps 729 mmHg 67%
    17:00 +10°C° 0 mm 1 mps 729 mmHg 77%
    18:00 +8°C° 0 mm 1 mps 729 mmHg 86%
    19:00 +8°C° 0 mm 1 mps 730 mmHg 88%
    20:00 +7°C° 0 mm 1 mps 730 mmHg 90%
    21:00 +6°C° 0 mm 1 mps 730 mmHg 92%
    22:00 +6°C° 0 mm 1 mps 730 mmHg 93%
    23:00 +6°C° 0 mm 1 mps 730 mmHg 94%
    Show more